Regional Weather Roundup
Issued by NWS Portland, ME

Home | Current Version | Previous Version | Text Only | Print | Product List | Glossary On
Versions: 1 2 3 4 5 6 7 8 9 10 11 12 13 14 15 16 17 18 19 20 21 22 23 24 25 26 27 28 29 30 31 32 33 34 35 36 37 38 39 40 41 42 43 44 45 46 47 48 49 50
000
ASUS41 KGYX 251410
RWRGYX
WEATHER ROUNDUP FOR MAINE AND NEW HAMPSHIRE
NATIONAL WEATHER SERVICE GRAY ME
1000 AM EDT FRI JUL 25 2014

MEZ002-005-006-010-012-015-018-020-021-024-026-027-029-251500-
MAINE

CITY           SKY/WX    TMP DP  RH WIND       PRES   REMARKS
PORTLAND       SUNNY     72  57  59 NW7       29.95S
SANFORD        SUNNY     73  55  53 W5        29.96R
BAR HARBOR     SUNNY     70  59  68 CALM      29.90S
WISCASSET      SUNNY     71  57  61 VRB5      29.94F
ROCKLAND       SUNNY     70  57  64 W5        29.91S
FRYEBURG       SUNNY     73  56  54 VRB5      29.96S
LEWISTONAUBURN SUNNY     70  55  60 NW9       29.95S
AUGUSTA        SUNNY     69  56  62 CALM      29.93S
WATERVILLE     SUNNY     70  55  60 W3        29.89S
BANGOR         SUNNY     70  56  61 W6        29.91F
GREENVILLE       N/A     67  54  63 VRB6      29.91S
MILLINOCKET    SUNNY     72  55  55 N7        29.89F
HOULTON        SUNNY     70  53  54 N6        29.86F
PRESQUE ISLE   SUNNY     68  48  49 W3        29.87F
FRENCHVILLE    SUNNY     65  52  62 CALM      29.85F
CARIBOU        SUNNY     67  53  61 VRB3      29.85F
$$

NHZ002-005-008-009-011-012-014-251500-
NEW HAMPSHIRE

CITY           SKY/WX    TMP DP  RH WIND       PRES   REMARKS
PORTSMOUTH     SUNNY     70  58  64 VRB6      29.96S
ROCHESTER      SUNNY     71  57  61 NW5       29.96S
NASHUA         SUNNY     71  55  56 NW7       30.00R
MANCHESTER     SUNNY     71  54  54 NW6       29.97S
CONCORD        SUNNY     69  54  58 NW5       29.99S
LACONIA          N/A     70  54  56 W9        29.98S
PLYMOUTH       FAIR      69  52  55 W7        29.98F
BERLIN         SUNNY     67  54  63 CALM      29.98F
WHITEFIELD     SUNNY     67  54  63 W5        30.00S
JAFFREY        SUNNY     69  54  58 CALM      30.03R
LEBANON        SUNNY     65  55  70 CALM      30.01S
MT WASHINGTON  FOG       43  43 100 NW33        N/A  VSB 1/16
$$

VTZ005-007-008-251500-
VERMONT

CITY           SKY/WX    TMP DP  RH WIND       PRES   REMARKS
ST JOHNSBURY     N/A     59  54  83 MISG      29.98F
MONTPELIER     SUNNY     66  56  70 CALM      30.04S
BURLINGTON     MOSUNNY   69  53  56 S12       29.99S
$$

MAZ007-012-024-CTZ003-RIZ002-NYZ038-NYZ072-251500-
SOUTHERN NEW ENGLAND AND NY

CITY           SKY/WX    TMP DP  RH WIND       PRES   REMARKS
BOSTON         MOSUNNY   74  49  41 VRB3      29.97S
WORCESTER      SUNNY     69  48  47 E3        30.03R
NANTUCKET      MOSUNNY   70  62  76 N9        29.96R
PROVIDENCE     MOSUNNY   73  50  44 NE9G16    29.99R
HARTFORD       SUNNY     72  55  55 N3        30.01S
ALBANY         SUNNY     69  56  62 SW3       30.04F
$$

ANZ081-ANZ082-ANZ150-NHZ014-MEZ023>029-251500-
COASTAL MARINE OBSERVATIONS

STATION/POSITION TIME  TEMP    WIND        PRES    WAVE
                       AIR SEA DIR/SP/G            HT/PER
                 (UTC) (F)     (DEG/KT/KT) (MB)    (FT/S)
MOUNT DESERT ROC 1400   57                 1012.6S
MATINICUS ROCK   1400          280/  8/  8 1012.9S
PORTLAND WX BUOY 1400   63 65  220/  4/  4 1013.8F   2/ 7
WELLS            1400   71 59  320/  3/  8 1013.4R
ISLE OF SHOALS   1400   64     260/  5/  5 1014.3R
JEFFREYS LEDGE   1400      65                N/A     2/10
CASHES LEDGE BUO 1400   65 65  VRB 10/ 10  1012.9S   2/ 9
$$

.............KEY..............
   WCI - WIND CHILL
   TC  - TEMPERATURE IN CELSIUS
   VSB - VISIBILITY IN MILES
   HX  - HEAT INDEX
   FAIR- INDICATES FEW OR NO CLOUDS BELOW 12,000 FT, WITH NO
         SIGNIFICANT WEATHER AND/OR OBSTRUCTIONS TO VISIBILITY.




USA.gov is the U.S. government's official web portal to all federal, state and local government web resources and services.